RADUGA 8 [-]

Last updated on July 6, 2021, 3:35 p.m. UTC

1 12351U 81027A   21186.77676547 -.00000264  00000-0  00000-0 0  9990
2 12351  10.5379 308.8233 0082938 216.3409 330.0290  1.00397254104408
UTC
Height (km)
Latitude
Longitude
Inclination
Orbital Period
UTC large
Height (km)
Speed (km/s)
/
Latitude / Longitude
Inclination (degrees)
Orbital Period (minutes)
Azimuth
Elevation
Range (km)
Doppler Factor
iOS Compass Heading
iOS Angle